Simultaneous Nadir Overpasses (SNOs) Predictions

Prediction of SNOs between GOES-17 and TERRA Satellite Orbit:

Table of predicted SNOs for the next 14.0 days since TLE Epoch: 4/2/2022
Index Date Time (GOES-17) GOES-17 Lat,Lon TERRA Lat,Lon Distance(km) Time Diff (sec)
1 04/02/2022 07:25:19 -0.04,-137.20 0.14,-136.36 96.12 80
2 04/02/2022 19:46:34 0.04,-137.20 0.95,-141.52 490.20 80
3 04/04/2022 07:13:05 -0.04,-137.19 0.77,-133.40 430.98 80
4 04/04/2022 19:34:20 0.04,-137.19 0.31,-138.57 155.56 80
5 04/06/2022 19:24:46 0.04,-137.18 -0.31,-135.61 178.25 80
6 04/07/2022 07:46:09 -0.04,-137.17 -0.82,-140.80 413.39 80
7 04/09/2022 07:33:55 -0.03,-137.14 -0.20,-137.85 80.64 80
8 04/11/2022 07:21:42 -0.02,-137.11 0.47,-134.91 251.64 80
9 04/11/2022 19:40:17 0.02,-137.11 0.62,-140.06 335.68 80
10 04/13/2022 19:28:03 0.02,-137.07 0.02,-137.11 4.20 80
11 04/15/2022 19:18:29 0.02,-137.03 -0.59,-134.15 327.16 80
